Location: B?dimalle
(17.1788°N, 80.5377°E)
Time: 12:37:24
(UTC+00:00)

Courier 1B Rocket - Pass Details

Date: 16 December 2025
Orbit: 920 x 1201 km, 28.2° (Epoch: 25 January)

Event Time Altitude Azimuth Distance (km) Brightness Sun altitude
Rises 15:07:45 0° 261° (W) 4,071 9.1 -41.6°
Reaches altitude 10° 15:10:40 10° 266° (W) 3,120 8.2 -42.2°
Enters shadow 15:14:58 34° 283° (WNW) 1,870 6.7 -43.2°
